Location: Vanderbilt Planetarium & Observatory
(40.9052°N, 73.3671°W)
Time: 22:03:09
(UTC-04:00)

Daily predictions for brighter satellites

Satellite Brightness Start Highest point End
(mag) Time Altitude Azimuth Time Altitude Azimuth Time Altitude Azimuth
SPOT 5 4.4 20:36:00 10° ESE 20:40:14 25° ENE 20:44:31 10° NNE
Meteor 1-27 Rocket 4.0 20:37:37 10° N 20:42:58 47° ENE 20:48:16 10° SSE
Cosmos 1184 Rocket 4.3 20:41:21 10° SE 20:43:49 20° E 20:46:19 10° NE
CZ-3C R/B 4.3 20:11:05 10° SW 20:47:40 26° SSW 20:56:06 10° SE
ATLAS 5 CENTAUR R/B 3.5 20:44:51 10° NW 20:50:35 43° WSW 20:56:38 10° S
Abrixas 4.4 20:49:37 10° SSE 20:51:05 13° SE 20:52:33 10° ESE
Cosmos 2154 Rocket 4.2 20:45:47 10° SSE 20:51:45 52° E 20:57:45 10° NNE
H-2A R/B 3.6 20:49:15 10° S 20:52:52 50° W 20:56:31 10° NNW
Cosmos 1242 Rocket 4.2 20:51:50 10° NNE 20:54:36 20° ENE 20:57:10 11° ESE
H-2A R/B 2.7 20:52:57 10° SE 20:56:56 39° ENE 21:00:51 10° N
Cosmos 2184 Rocket 4.3 20:51:47 10° SSW 20:57:54 71° W 21:04:07 10° N
YAOGAN 11 4.2 20:55:05 10° SSE 20:59:38 88° ENE 21:04:13 10° NNW
Cosmos 1782 3.0 20:55:46 10° NNW 20:59:48 75° W 21:03:50 10° S
YAOGAN 6 4.4 20:58:54 11° ESE 21:01:04 17° ENE 21:03:25 10° NNE
Cosmos 1174 3.2 20:58:29 10° NNW 21:01:41 75° WSW 21:04:32 11° SSE
Cosmos 676 Rocket 4.0 20:56:52 10° NNW 21:02:05 83° ENE 21:07:20 10° SSE
Cosmos 1408 2.9 20:59:20 10° SSE 21:02:49 44° E 21:06:18 10° NNE
Cosmos 1954 Rocket 4.0 21:00:08 10° NNW 21:05:20 69° ENE 21:10:33 10° SSE
Okean 3 3.8 21:05:27 10° N 21:09:37 48° E 21:13:22 12° SSE
Atlas Centaur 2 3.3 21:09:36 10° SW 21:10:47 11° SSW 21:11:58 10° S
COS B Rocket 3.3 21:07:19 10° N 21:11:12 53° E 21:14:38 10° SSE
CZ-4 DEB 3.8 21:11:04 10° S 21:14:06 44° W 21:17:09 10° NNW
Cosmos 1833 Rocket 4.0 21:10:59 10° N 21:15:42 27° NE 21:19:34 14° ESE
Cosmos 1844 Rocket 3.8 21:13:57 10° SW 21:19:24 48° WNW 21:24:51 10° NNE
Cosmos 1825 2.1 21:15:56 10° S 21:19:44 79° E 21:23:34 10° N
Cosmos 1939 Rocket 2.8 21:16:02 10° SSE 21:19:55 89° ENE 21:23:53 10° NNW
Cosmos 2278 Rocket 2.2 21:15:45 10° SSW 21:21:26 88° ESE 21:27:09 10° NNE
Cosmos 1741 Rocket 4.4 21:16:49 10° N 21:21:51 46° ENE 21:25:30 18° SE
GPS 2-05 Rocket1 3.7 21:18:48 10° WSW 21:22:14 36° S 21:24:07 21° SE
Okean 2 Rocket 3.0 21:28:08 10° S 21:32:32 69° E 21:36:55 10° NNE
Meteor 2-13 Rocket 4.4 21:29:11 10° S 21:35:16 68° E 21:41:24 10° NNE
Envisat 3.1 21:31:58 10° S 21:36:59 75° WSW 21:42:05 10° NNW
SEDSat Delta rocket 4.3 21:35:39 10° SW 21:38:47 19° S 21:39:01 19° SSE
PSLV R/B 3.1 21:38:39 34° SE 21:39:41 59° ENE 21:42:37 10° N
Cosmos 1782 Rocket 3.7 21:35:53 10° S 21:40:21 80° W 21:44:51 10° N
Cosmos 2082 Rocket 2.5 21:36:04 10° NNW 21:41:38 52° ENE 21:44:56 24° SE
Cosmos 614 Rocket 4.0 21:36:58 10° NNW 21:42:03 63° ENE 21:45:00 24° SE
CZ-4 SHROUD 3.2 21:41:47 34° SE 21:42:53 62° ENE 21:45:57 10° N
Nadezhda 3 Rocket 4.5 21:38:12 10° NNW 21:44:29 63° W 21:50:45 10° S
Intercosmos 25 2.8 21:43:01 20° S 21:45:15 68° E 21:48:23 10° NNE
OAO 3 Rocket 3.9 21:41:52 10° SW 21:46:22 35° SSE 21:48:02 27° SE
Cosmos 2218 Rocket 4.2 21:41:56 15° SSE 21:47:12 56° E 21:53:26 10° NNE
ERS-1 Rocket 4.2 21:44:17 10° SSW 21:48:57 38° W 21:53:39 10° NNW
Cosmos 1420 Rocket 4.2 21:44:36 10° SSW 21:49:50 76° WNW 21:55:05 10° NNE
APEX 3.6 21:46:34 10° SSW 21:50:29 80° WNW 21:55:42 10° NNE
Cosmos 1812 4.2 21:48:37 10° NNE 21:51:40 22° ENE 21:52:04 21° E
COSMOS 2487 3.9 21:48:55 10° NW 21:52:14 34° WSW 21:54:41 16° SSW
DNEPR-1 R/B 3.9 21:47:52 10° NW 21:53:09 71° WSW 21:55:33 27° SSE
Meteor 1-14 Rocket 4.2 21:48:54 13° S 21:53:57 69° E 21:59:29 10° NNE
Cosmos 1975 Rocket 3.5 21:51:01 10° NNW 21:55:17 60° W 21:58:29 17° S
Cosmos 1140 Rocket 3.8 21:51:31 10° NNW 21:56:36 61° WSW 22:00:06 20° S
USA 234 4.3 21:52:28 10° ENE 21:56:42 23° ESE 21:56:42 23° ESE
Cosmos 1959 Rocket 4.4 21:53:08 16° S 21:58:01 68° E 22:04:05 10° NNE
Cosmos 2297 3.7 21:53:13 10° SSW 21:58:55 90° WNW 22:04:42 10° NNE
Cosmos 1727 Rocket 4.2 21:55:02 10° N 22:01:04 52° E 22:04:02 29° SE
Terra 3.0 22:01:13 24° E 22:02:32 27° ENE 22:06:31 10° N
NOAA 11 4.2 22:01:15 29° SSE 22:04:05 68° ENE 22:09:34 10° N
AVUM R/B 3.9 22:01:21 10° NNW 22:04:44 42° ENE 22:05:08 40° E
CZ-4B R/B 3.3 22:01:38 10° NNE 22:06:34 71° ESE 22:09:18 26° S
ISS -0.8 22:05:12 10° WNW 22:07:53 23° NNW 22:10:35 10° NNE
MetOp-B 4.4 22:04:33 21° S 22:08:08 68° WSW 22:13:29 10° NNW
Cosmos 1536 Rocket 3.7 22:03:50 10° N 22:08:15 57° E 22:09:30 41° SE
H-2A R/B 2.7 22:11:12 32° ESE 22:13:02 43° ENE 22:18:01 10° N
NOSS 8 (F) 4.3 22:11:48 23° SSW 22:13:53 86° ESE 22:17:34 10° NE
BREEZE-M DEB (TANK) 4.3 22:13:51 10° NW 22:15:23 16° N 22:17:32 10° NE
SPOT 5 4.0 22:14:01 16° SSW 22:17:58 44° W 22:23:06 10° NNW
Lacrosse 5 rocket 3.5 22:21:56 12° ENE 22:21:56 12° ENE 22:22:19 10° ENE
SL-8 Rocket 4.3 22:14:11 10° SSW 22:20:25 68° W 22:26:39 10° N
IGS 5A 4.2 22:25:17 37° E 22:25:31 37° ENE 22:29:22 10° N
USA 245 3.8 22:25:48 41° SW 22:26:37 51° W 22:30:44 10° NNW
Abrixas 4.4 22:23:40 10° WSW 22:24:56 23° WSW 22:24:56 23° WSW
Cosmos 2369 Rocket 3.7 22:29:38 19° E 22:29:38 19° E 22:32:22 10° NE
SPOT 1/Viking Rocket 3.9 22:26:12 31° S 22:28:39 63° WSW 22:33:51 10° NNW
ARGOS 3.3 22:27:48 34° S 22:30:10 70° WSW 22:35:32 10° NNW
Gbstr 26 Del rocket 3.9 22:25:20 10° NW 22:30:16 47° NNE 22:31:42 34° ENE
Lacrosse 5 2.2 22:31:52 44° ESE 22:31:52 44° ESE 22:36:04 10° NE
H-2A R/B 4.4 22:30:12 10° SW 22:33:04 17° W 22:35:55 10° NW
YAOGAN 6 4.2 22:33:23 22° SW 22:34:27 26° W 22:37:29 10° NW
CZ-4C R/B 3.2 22:38:45 80° SE 22:38:55 84° ENE 22:43:05 10° N
Cosmos 2151 Rocket 4.4 22:36:41 25° SW 22:39:04 51° W 22:43:30 10° N
USA 229 DEB 4.0 22:40:33 10° NW 22:47:34 64° WSW 22:50:15 39° S
USA 229 3.9 22:40:39 10° NW 22:47:41 64° WSW 22:50:21 40° S
Cosmos 1400 Rocket 4.4 22:49:31 26° NE 22:49:31 26° NE 22:51:52 10° NNE
Cosmos 1300 Rocket 3.4 22:49:12 81° SSE 22:49:24 85° E 22:53:53 10° N
ASTEX 1 3.4 22:46:30 10° NNE 22:51:25 59° E 22:51:33 59° ESE
Iridium 4 Rocket 4.4 22:46:19 10° NNE 22:51:49 39° E 22:52:22 38° E
Meteor 1-20 Rocket 4.3 22:50:15 36° SSW 22:52:35 73° W 22:58:07 10° N
Okean 1 Rocket 2.9 22:56:17 87° E 22:56:17 87° E 23:00:46 10° N
Cosmos 1943 Rocket 4.4 22:59:12 11° ENE 22:59:12 11° ENE 22:59:42 10° ENE
Cosmos 1833 Rocket 3.4 22:54:28 10° NW 22:59:49 46° WSW 23:01:16 38° SW
NOSS 3-1 (A) 4.3 22:58:29 10° NNW 23:05:57 61° NE 23:09:02 39° ESE
Cosmos 1331 Rocket 4.5 23:05:38 31° SW 23:07:52 56° WNW 23:12:57 10° N
Cosmos 1503 Rocket 4.4 23:05:54 10° N 23:11:01 50° ENE 23:11:14 50° ENE
Cosmos 1535 Rocket 4.4 23:12:04 60° SSE 23:13:14 75° E 23:19:38 10° N
Okean 1-7 Rocket 3.7 23:08:54 10° NNW 23:13:10 68° WNW 23:13:10 68° WNW
Okean 1 4.3 23:10:58 10° NNW 23:14:37 42° W 23:14:37 42° W
DMSP B5D2-2 4.4 23:14:16 10° N 23:19:25 62° WNW 23:20:37 48° SW
Cosmos 2082 Rocket 3.9 23:21:02 10° NW 23:25:18 22° W 23:26:48 20° WSW
Meteor 2-14 Rocket 4.3 23:25:58 67° ESE 23:26:20 69° E 23:32:27 10° NNE
ATLAS 2AS CENTAUR R/B 4.1 23:19:19 10° NNW 23:26:47 38° NE 23:30:49 24° E
Meteor 2-15 4.3 23:23:07 10° N 23:29:14 68° E 23:29:39 66° ESE
NOSS 3-1 (C) 4.0 23:27:27 10° NW 23:35:07 80° WSW 23:37:01 57° SSE
Meteor 2-4 Rocket 3.6 23:31:46 10° N 23:37:12 80° ENE 23:37:12 80° ENE
Terra 3.1 23:40:06 31° W 23:40:09 31° W 23:44:24 10° NNW
USA 234 3.1 23:34:25 10° NE 23:41:00 90° NW 23:43:56 36° SW
BREEZE-M TANK 3.2 23:36:24 10° WNW 23:42:07 54° NW 23:42:07 54° NW
ISS 0.0 23:43:41 10° NNW 23:45:13 13° N 23:46:45 10° NNE
Cosmos 1354 Rocket 4.1 23:40:10 10° NNW 23:45:03 72° WNW 23:45:03 72° WNW
H-2A R/B 3.7 23:51:51 23° WSW 23:52:33 24° W 23:56:49 10° NW
Cosmos 1315 Rocket 4.5 23:55:13 32° N 23:55:13 32° N 23:57:26 10° N
